Location: Blazny
(46.0612°N, 84.4033°W)
Time: 21:14:52
(UTC-04:00)

Envisat - Pass Details

Date: 23 September 2024
Orbit: 762 x 764 km, 98.3° (Epoch: 11 October)

Event Time Altitude Azimuth Distance (km) Brightness Sun altitude
Rises 06:44:13 0° 356° (N) 3,237 6.3 -8.1°
Reaches altitude 10° 06:48:05 10° 326° (NW) 2,305 5.2 -7.5°
Maximum altitude 06:49:52 12° 305° (NW) 2,174 4.9 -7.2°
Drops below altitude 10° 06:51:39 10° 284° (WNW) 2,300 4.9 -6.9°
Enters shadow 06:52:46 - 273° (W) 2,494 5.0 -6.7°
